Flag for U.S.A. Weather past 2 weeks in San Bernardino, California, U.S.A.

Now
67 °F

Overcast.


Feels Like: 67 °F
Forecast: 59 / 88 °F
Wind: No wind

Location: Riverside Municipal Airport

Current Time: Sep 1, 2015 at 6:03:34 AM

Latest Report: Sep 1, 2015 at 4:53 AM


Visibility: 9 mi

Pressure: 29.86 "Hg

Humidity: 79%

Dew point: 60 °F

Location of San BernardinoLocation

Historic Weather in San Bernardino — Graph

°F

San Bernardino temperature yesterday

Maximum temperature yesterday: 91 °F (at 2:53 PM)
Minimum temperature yesterday: 67 °F (at 5:53 AM)
Average temperature yesterday: 76 °F

Past Weeks' High & Low Weather Summary

 TemperatureHumidityPressure
High104 °F (Aug 28, 2:53 PM)91% (Aug 19, 6:53 AM)29.95 "Hg (Aug 19, 6:53 AM)
Low65 °F (Aug 19, 5:53 AM)13% (Aug 28, 3:53 PM)29.75 "Hg (Aug 28, 3:53 PM)
Average80 °F55%29.86 "Hg
* Reported Aug 17 3:53 AM — Sep 1 3:53 AM, San Bernardino, Weather by CustomWeather, © 2015

Note: Actual official high and low records may vary slightly from our data, if they occured in-between our weather recording intervals... More about our weather records

Advertising

San Bernardino weather history for previous 24 hours

 ConditionsComfort  
Time TempWeatherWind HumidityBarometerVisibility
3:53 AM
Tue, Sep 1
67 °FOvercast.No wind81%29.87 "Hg10 mi
2:53 AM67 °FOvercast.3 mph81%29.87 "Hg10 mi
1:53 AM66 °FPassing clouds.5 mph84%29.88 "Hg10 mi
12:53 AM67 °FClear.5 mph81%29.88 "Hg10 mi
11:53 PM
Mon, Aug 31
68 °FClear.3 mph78%29.88 "Hg10 mi
10:53 PM70 °FClear.3 mph73%29.87 "Hg10 mi
9:53 PM71 °FClear.3 mph71%29.85 "Hg10 mi
7:53 PM74 °FSunny.8 mph64%29.81 "Hg10 mi
6:53 PM78 °FSunny.10 mph54%29.79 "Hg10 mi
5:53 PM83 °FSunny.10 mph46%29.78 "Hg10 mi
4:53 PM86 °FSunny.12 mph40%29.78 "Hg10 mi
3:53 PM89 °FSunny.12 mph36%29.78 "Hg10 mi
2:53 PM91 °FSunny.9 mph32%29.80 "Hg10 mi
1:53 PM89 °FSunny.8 mph32%29.82 "Hg10 mi
12:53 PM87 °FSunny.6 mph39%29.84 "Hg10 mi
11:53 AM84 °FSunny.7 mph48%29.85 "Hg10 mi
10:53 AM80 °FSunny.5 mph54%29.87 "Hg10 mi
9:53 AM76 °FSunny.5 mph62%29.87 "Hg10 mi
8:53 AM72 °FSunny.3 mph73%29.86 "Hg10 mi
7:53 AM69 °FSunny.No wind79%29.85 "Hg10 mi
6:53 AM67 °FClear.3 mph85%29.84 "Hg10 mi
Weather by CustomWeather, © 2015

See weather overviewHow to use our weather pages